| time (UTC) | temp F | wind direction | speed MPH | gust MPH | rain 1hr in | rain 24hr in | rain mn in | humidity % | barometer mb |
| 20260904005518 | 0 | 0 | 0.0 | 0.0 | 0.00 | 0.05 | 0.00 | 100 | |
| 20260904004616 | 0 | 0 | 0.0 | 0.0 | 0.00 | 0.05 | 0.00 | 100 | |
| 20260904003617 | 0 | 0 | 0.0 | 0.0 | 0.00 | 0.05 | 0.00 | 100 | |
| 20260904002616 | 0 | 0 | 0.0 | 0.0 | 0.00 | 0.05 | 0.00 | 100 | |
| 20260904000618 | 0 | 0 | 0.0 | 0.0 | 0.00 | 0.05 | 0.00 | 100 | |
| 20260903235715 | 0 | 0 | 0.0 | 0.0 | 0.00 | 0.05 | 0.00 | 100 | |
| 20260903234717 | 0 | 0 | 0.0 | 0.0 | 0.00 | 0.05 | 0.00 | 100 | |
| 20260903232717 | 0 | 0 | 0.0 | 0.0 | 0.00 | 0.05 | 0.00 | 100 | |
| 20260903231718 | 0 | 0 | 0.0 | 0.0 | 0.00 | 0.05 | 0.00 | 100 | |
| 20260903230717 | 0 | 0 | 0.0 | 0.0 | 0.00 | 0.05 | 0.00 | 100 | |
| 20260903224716 | 0 | 0 | 0.0 | 0.0 | 0.00 | 0.05 | 0.00 | 100 | |
| 20260903223717 | 0 | 0 | 0.0 | 0.0 | 0.00 | 0.05 | 0.00 | 100 | |
| 20260903222718 | 0 | 0 | 0.0 | 0.0 | 0.00 | 0.05 | 0.00 | 100 | |
| 20260903221816 | 0 | 0 | 0.0 | 0.0 | 0.00 | 0.05 | 0.00 | 100 | |
| 20260903220819 | 0 | 0 | 0.0 | 0.0 | 0.00 | 0.05 | 0.00 | 100 | |
| 20260903215817 | 0 | 0 | 0.0 | 0.0 | 0.00 | 0.05 | 0.00 | 100 | |
| 20260903214915 | 0 | 0 | 0.0 | 0.0 | 0.00 | 0.05 | 0.00 | 100 | |
| 20260903213931 | 0 | 0 | 0.0 | 0.0 | 0.00 | 0.05 | 0.00 | 100 | |
| 20260903212917 | 0 | 0 | 0.0 | 0.0 | 0.00 | 0.05 | 0.00 | 100 | |
| 20260903211916 | 0 | 0 | 0.0 | 0.0 | 0.00 | 0.05 | 0.00 | 100 | |
| 20260903210934 | 0 | 0 | 0.0 | 0.0 | 0.00 | 0.05 | 0.00 | 100 | |
| 20260903210031 | 78 | 360 | 0.0 | 0.0 | 0.00 | 0.05 | 0.05 | 78 | 1014.4 |
| 20260903205130 | 0 | 0 | 0.0 | 0.0 | 0.00 | 0.05 | 0.00 | 100 | |
| 20260903204229 | 0 | 0 | 0.0 | 0.0 | 0.00 | 0.05 | 0.00 | 100 | |
| 20260903203232 | 0 | 0 | 0.0 | 0.0 | 0.00 | 0.05 | 0.00 | 100 | |
| 20260903202330 | 0 | 0 | 0.0 | 0.0 | 0.00 | 0.05 | 0.00 | 100 | |
| 20260903201347 | 77 | 112 | 2.0 | 2.0 | 0.00 | 0.05 | 0.05 | 79 | 1014.6 |
| 20260903195430 | 0 | 0 | 0.0 | 0.0 | 0.00 | 0.05 | 0.00 | 100 | |
| 20260903194430 | 0 | 0 | 0.0 | 0.0 | 0.00 | 0.05 | 0.00 | 100 | |
| 20260903193431 | 77 | 202 | 1.0 | 1.0 | 0.00 | 0.05 | 0.05 | 80 | 1014.8 |
| 20260903192430 | 77 | 22 | 0.0 | 0.0 | 0.00 | 0.05 | 0.05 | 81 | 1015.0 |
| 20260903191431 | 77 | 67 | 4.0 | 4.0 | 0.00 | 0.05 | 0.05 | 81 | 1014.8 |
| 20260903190431 | 75 | 360 | 0.0 | 0.0 | 0.00 | 0.05 | 0.05 | 81 | 1014.8 |
| 20260903185530 | 76 | 45 | 1.0 | 1.0 | 0.00 | 0.05 | 0.05 | 81 | 1015.1 |
| 20260903184629 | 76 | 101 | 2.0 | 2.0 | 0.00 | 0.05 | 0.05 | 81 | 1015.1 |
| 20260903183629 | 0 | 0 | 0.0 | 0.0 | 0.00 | 0.05 | 0.00 | 100 | |
| 20260903182629 | 74 | 45 | 4.0 | 4.0 | 0.00 | 0.05 | 0.05 | 82 | 1015.6 |
| 20260903181630 | 74 | 21 | 0.0 | 1.0 | 0.00 | 0.05 | 0.05 | 83 | 1015.8 |
| 20260903180729 | 0 | 0 | 0.0 | 0.0 | 0.00 | 0.05 | 0.00 | 100 | |
| 20260903175731 | 0 | 0 | 0.0 | 0.0 | 0.00 | 0.05 | 0.00 | 100 | |
| 20260903174730 | 76 | 112 | 2.0 | 2.0 | 0.00 | 0.05 | 0.05 | 83 | 1015.6 |
| 20260903173728 | 0 | 0 | 0.0 | 0.0 | 0.00 | 0.05 | 0.00 | 100 | |
| 20260903172728 | 0 | 0 | 0.0 | 0.0 | 0.00 | 0.05 | 0.00 | 100 | |
| 20260903170828 | 0 | 0 | 0.0 | 0.0 | 0.00 | 0.05 | 0.00 | 100 | |
| 20260903164914 | 75 | 112 | 0.0 | 0.0 | 0.00 | 0.05 | 0.05 | 87 | 1015.6 |
| 20260903163011 | 75 | 202 | 2.0 | 2.0 | 0.00 | 0.05 | 0.05 | 89 | 1015.9 |
| 20260903162014 | 74 | 78 | 2.0 | 3.0 | 0.00 | 0.05 | 0.05 | 89 | 1015.7 |
| 20260903161014 | 74 | 180 | 3.0 | 3.0 | 0.00 | 0.05 | 0.05 | 89 | 1015.9 |
| 20260903160114 | 73 | 112 | 0.0 | 0.0 | 0.00 | 0.05 | 0.05 | 90 | 1015.9 |
| 20260903155114 | 71 | 175 | 0.0 | 1.0 | 0.00 | 0.05 | 0.05 | 91 | 1016.0 |
| 20260903154115 | 70 | 180 | 0.0 | 1.0 | 0.00 | 0.05 | 0.05 | 90 | 1016.1 |
| 20260903153113 | 69 | 112 | 0.0 | 0.0 | 0.00 | 0.05 | 0.05 | 90 | 1016.4 |
| 20260903152212 | 69 | 225 | 1.0 | 2.0 | 0.00 | 0.05 | 0.05 | 92 | 1016.6 |
| 20260903151213 | 69 | 225 | 1.0 | 1.0 | 0.00 | 0.05 | 0.05 | 92 | 1016.7 |
| 20260903150312 | 68 | 220 | 0.0 | 2.0 | 0.00 | 0.05 | 0.05 | 92 | 1016.7 |
| 20260903145314 | 68 | 177 | 0.0 | 1.0 | 0.00 | 0.05 | 0.05 | 92 | 1016.8 |
| 20260903144412 | 67 | 270 | 0.0 | 0.0 | 0.00 | 0.05 | 0.05 | 91 | 1016.9 |
| 20260903143413 | 66 | 112 | 0.0 | 0.0 | 0.00 | 0.05 | 0.05 | 91 | 1017.1 |
| 20260903142513 | 66 | 112 | 0.0 | 0.0 | 0.00 | 0.05 | 0.05 | 91 | 1017.1 |
| 20260903141512 | 0 | 0 | 0.0 | 0.0 | 0.00 | 0.05 | 0.00 | 100 | |
| 20260903135513 | 64 | 225 | 0.0 | 0.0 | 0.00 | 0.05 | 0.05 | 90 | 1017.6 |
| 20260903134514 | 0 | 0 | 0.0 | 0.0 | 0.00 | 0.05 | 0.00 | 100 | |
| 20260903133612 | 63 | 225 | 0.0 | 0.0 | 0.00 | 0.05 | 0.05 | 90 | 1017.6 |
| 20260903132611 | 63 | 360 | 1.0 | 1.0 | 0.00 | 0.06 | 0.05 | 90 | 1017.5 |
| 20260903131613 | 0 | 0 | 0.0 | 0.0 | 0.00 | 0.06 | 0.00 | 100 | |
| 20260903124729 | 0 | 0 | 0.0 | 0.0 | 0.00 | 0.06 | 0.00 | 100 | |
| 20260903123729 | 62 | 90 | 0.0 | 0.0 | 0.00 | 0.06 | 0.05 | 89 | 1018.0 |
| 20260903122727 | 62 | 90 | 0.0 | 0.0 | 0.00 | 0.06 | 0.05 | 88 | 1017.9 |
| 20260903121725 | 62 | 90 | 0.0 | 0.0 | 0.00 | 0.06 | 0.05 | 88 | 1018.1 |
| 20260903120725 | 62 | 90 | 0.0 | 0.0 | 0.00 | 0.06 | 0.05 | 88 | 1018.1 |
| 20260903115726 | 62 | 90 | 0.0 | 0.0 | 0.00 | 0.06 | 0.05 | 88 | 1018.3 |
| 20260903112726 | 61 | 90 | 0.0 | 0.0 | 0.00 | 0.06 | 0.05 | 87 | 1018.3 |
| 20260903111725 | 61 | 90 | 0.0 | 0.0 | 0.01 | 0.06 | 0.05 | 87 | 1018.5 |
| 20260903104825 | 61 | 90 | 0.0 | 0.0 | 0.03 | 0.06 | 0.05 | 87 | 1018.3 |
| 20260903103825 | 60 | 90 | 0.0 | 0.0 | 0.03 | 0.06 | 0.05 | 85 | 1018.4 |
| 20260903102827 | 60 | 90 | 0.0 | 0.0 | 0.03 | 0.06 | 0.05 | 85 | 1018.4 |
| 20260903102724 | 60 | 90 | 0.0 | 0.0 | 0.03 | 0.06 | 0.05 | 85 | 1018.4 |
| 20260903101724 | 60 | 90 | 0.0 | 0.0 | 0.02 | 0.05 | 0.04 | 84 | 1018.4 |
| 20260903100726 | 60 | 270 | 0.0 | 0.0 | 0.02 | 0.05 | 0.04 | 85 | 1018.2 |
| 20260903094728 | 0 | 0 | 0.0 | 0.0 | 0.00 | 0.03 | 0.00 | 100 | |
| 20260903093743 | 0 | 0 | 0.0 | 0.0 | 0.00 | 0.03 | 0.00 | 100 | |
| 20260903092725 | 0 | 0 | 0.0 | 0.0 | 0.00 | 0.03 | 0.00 | 100 | |
| 20260903090842 | 0 | 0 | 0.0 | 0.0 | 0.00 | 0.03 | 0.00 | 100 | |
| 20260903085924 | 61 | 360 | 0.0 | 0.0 | 0.02 | 0.03 | 0.02 | 81 | 1018.7 |
| 20260903082024 | 61 | 270 | 1.0 | 1.0 | 0.02 | 0.03 | 0.02 | 80 | 1019.0 |
| 20260903081123 | 62 | 214 | 1.0 | 2.0 | 0.02 | 0.03 | 0.02 | 80 | 1018.7 |
| 20260903075125 | 0 | 0 | 0.0 | 0.0 | 0.00 | 0.01 | 0.00 | 100 | |
| 20260903074125 | 0 | 0 | 0.0 | 0.0 | 0.00 | 0.01 | 0.00 | 100 | |
| 20260903072213 | 0 | 0 | 0.0 | 0.0 | 0.00 | 0.01 | 0.00 | 100 | |
| 20260903071212 | 63 | 337 | 0.0 | 0.0 | 0.00 | 0.01 | 0.00 | 80 | 1019.1 |
| 20260903070215 | 0 | 0 | 0.0 | 0.0 | 0.00 | 0.01 | 0.00 | 100 | |
| 20260903065313 | 63 | 337 | 0.0 | 0.0 | 0.00 | 0.01 | 0.00 | 79 | 1019.5 |
| 20260903064313 | 0 | 0 | 0.0 | 0.0 | 0.00 | 0.01 | 0.00 | 100 | |
| 20260903063329 | 0 | 0 | 0.0 | 0.0 | 0.00 | 0.01 | 0.00 | 100 | |
| 20260903062414 | 0 | 0 | 0.0 | 0.0 | 0.00 | 0.01 | 0.00 | 100 | |
| 20260903061413 | 0 | 0 | 0.0 | 0.0 | 0.00 | 0.01 | 0.00 | 100 | |
| 20260903060411 | 0 | 0 | 0.0 | 0.0 | 0.00 | 0.01 | 0.00 | 100 | |
| 20260903055413 | 0 | 0 | 0.0 | 0.0 | 0.00 | 0.01 | 0.00 | 100 | |
| 20260903054512 | 0 | 0 | 0.0 | 0.0 | 0.00 | 0.01 | 0.00 | 100 | |
| 20260903052628 | 0 | 0 | 0.0 | 0.0 | 0.00 | 0.01 | 0.00 | 100 | |
| 20260903051614 | 0 | 0 | 0.0 | 0.0 | 0.00 | 0.01 | 0.00 | 100 | |
| 20260903050713 | 0 | 0 | 0.0 | 0.0 | 0.00 | 0.01 | 0.00 | 100 | |
| 20260903045813 | 0 | 0 | 0.0 | 0.0 | 0.00 | 0.01 | 0.00 | 100 | |
| 20260903044815 | 0 | 0 | 0.0 | 0.0 | 0.00 | 0.01 | 0.00 | 100 | |
| 20260903043812 | 0 | 0 | 0.0 | 0.0 | 0.00 | 0.01 | 0.00 | 100 | |
| 20260903042911 | 0 | 0 | 0.0 | 0.0 | 0.00 | 0.01 | 0.00 | 100 | |
| 20260903041913 | 0 | 0 | 0.0 | 0.0 | 0.00 | 0.01 | 0.00 | 100 | |
| 20260903041012 | 0 | 0 | 0.0 | 0.0 | 0.00 | 0.01 | 0.00 | 100 | |
| 20260903040013 | 0 | 0 | 0.0 | 0.0 | 0.00 | 0.01 | 0.00 | 100 | |
| 20260903035011 | 0 | 0 | 0.0 | 0.0 | 0.00 | 0.01 | 0.00 | 100 | |
| 20260903034013 | 0 | 0 | 0.0 | 0.0 | 0.00 | 0.01 | 0.00 | 100 | |
| 20260903033015 | 0 | 0 | 0.0 | 0.0 | 0.00 | 0.01 | 0.00 | 100 | |
| 20260903032017 | 63 | 270 | 0.0 | 0.0 | 0.00 | 0.01 | 0.01 | 77 | 1021.8 |
| 20260903031016 | 0 | 0 | 0.0 | 0.0 | 0.00 | 0.01 | 0.00 | 100 | |
| 20260903030017 | 0 | 0 | 0.0 | 0.0 | 0.00 | 0.01 | 0.00 | 100 | |
| 20260903025015 | 0 | 0 | 0.0 | 0.0 | 0.00 | 0.01 | 0.00 | 100 | |
| 20260903024016 | 0 | 0 | 0.0 | 0.0 | 0.00 | 0.01 | 0.00 | 100 | |
| 20260903023015 | 0 | 0 | 0.0 | 0.0 | 0.00 | 0.01 | 0.00 | 100 | |
| 20260903022016 | 0 | 0 | 0.0 | 0.0 | 0.00 | 0.01 | 0.00 | 100 | |
| 20260903021014 | 0 | 0 | 0.0 | 0.0 | 0.00 | 0.01 | 0.00 | 100 | |
| 20260903020014 | 0 | 0 | 0.0 | 0.0 | 0.00 | 0.01 | 0.00 | 100 | |
| 20260903015016 | 0 | 0 | 0.0 | 0.0 | 0.00 | 0.01 | 0.00 | 100 | |
| 20260903014016 | 0 | 0 | 0.0 | 0.0 | 0.00 | 0.01 | 0.00 | 100 | |
| 20260903013015 | 0 | 0 | 0.0 | 0.0 | 0.00 | 0.01 | 0.00 | 100 | |
| 20260903012017 | 0 | 0 | 0.0 | 0.0 | 0.00 | 0.01 | 0.00 | 100 | |
| 20260903011115 | 0 | 0 | 0.0 | 0.0 | 0.00 | 0.01 | 0.00 | 100 |